| time (UTC) | temp C | wind direction | speed KPH | gust KPH | rain 1hr cm | rain 24hr cm | rain mn cm | humidity % | barometer mb |
| 20260505121522 | 18 | 201 | 3.2 | 14.5 | 0.00 | 0.00 | 0.00 | 63 | 1014.7 |
| 20260505120030 | 18 | 268 | 3.2 | 11.3 | 0.00 | 0.00 | 0.00 | 63 | 1014.6 |
| 20260505114512 | 18 | 215 | 4.8 | 11.3 | 0.00 | 0.00 | 0.00 | 63 | 1014.5 |
| 20260505113006 | 17 | 228 | 3.2 | 9.7 | 0.00 | 0.00 | 0.00 | 64 | 1014.3 |
| 20260505111514 | 17 | 191 | 1.6 | 11.3 | 0.00 | 0.00 | 0.00 | 64 | 1014.3 |
| 20260505101555 | 16 | 191 | 3.2 | 6.4 | 0.00 | 0.00 | 0.00 | 64 | 1014.0 |
| 20260505100051 | 16 | 203 | 1.6 | 8.0 | 0.00 | 0.00 | 0.00 | 64 | 1013.7 |
| 20260505094548 | 16 | 217 | 1.6 | 8.0 | 0.00 | 0.00 | 0.00 | 64 | 1013.6 |
| 20260505093055 | 16 | 170 | 0.0 | 4.8 | 0.00 | 0.00 | 0.00 | 64 | 1013.6 |
| 20260505091555 | 16 | 236 | 1.6 | 6.4 | 0.00 | 0.00 | 0.00 | 64 | 1013.5 |
| 20260505090042 | 16 | 253 | 1.6 | 12.9 | 0.00 | 0.00 | 0.00 | 63 | 1013.5 |
| 20260505084542 | 17 | 240 | 4.8 | 11.3 | 0.00 | 0.00 | 0.00 | 63 | 1013.4 |
| 20260505083136 | 17 | 217 | 3.2 | 11.3 | 0.00 | 0.00 | 0.00 | 63 | 1013.4 |
| 20260505081534 | 17 | 174 | 4.8 | 12.9 | 0.00 | 0.00 | 0.00 | 62 | 1013.4 |
| 20260505080032 | 17 | 265 | 3.2 | 17.7 | 0.00 | 0.00 | 0.00 | 62 | 1013.4 |
| 20260505074531 | 17 | 259 | 6.4 | 17.7 | 0.00 | 0.00 | 0.00 | 62 | 1013.4 |
| 20260505073029 | 17 | 224 | 8.0 | 16.1 | 0.00 | 0.00 | 0.00 | 62 | 1013.5 |
| 20260505071532 | 17 | 225 | 8.0 | 17.7 | 0.00 | 0.00 | 0.00 | 62 | 1013.3 |
| 20260505070027 | 17 | 204 | 6.4 | 17.7 | 0.00 | 0.00 | 0.00 | 62 | 1013.3 |
| 20260505064521 | 17 | 219 | 4.8 | 12.9 | 0.00 | 0.00 | 0.00 | 62 | 1013.3 |
| 20260505063019 | 16 | 235 | 3.2 | 6.4 | 0.00 | 0.00 | 0.00 | 63 | 1013.3 |
| 20260505061517 | 16 | 229 | 0.0 | 1.6 | 0.00 | 0.00 | 0.00 | 65 | 1013.4 |
| 20260505060033 | 16 | 217 | 1.6 | 4.8 | 0.00 | 0.00 | 0.00 | 64 | 1013.4 |
| 20260505054513 | 16 | 203 | 0.0 | 0.0 | 0.00 | 0.00 | 0.00 | 64 | 1013.3 |
| 20260505053008 | 17 | 191 | 0.0 | 3.2 | 0.00 | 0.00 | 0.00 | 63 | 1013.4 |
| 20260505051515 | 16 | 210 | 0.0 | 3.2 | 0.00 | 0.00 | 0.00 | 64 | 1013.5 |
| 20260505050107 | 16 | 211 | 0.0 | 4.8 | 0.00 | 0.00 | 0.00 | 67 | 1013.6 |
| 20260505041546 | 14 | 165 | 0.0 | 0.0 | 0.00 | 0.00 | 0.00 | 76 | 1013.4 |
| 20260505040043 | 14 | 166 | 0.0 | 0.0 | 0.00 | 0.00 | 0.00 | 78 | 1013.2 |
| 20260505034540 | 14 | 167 | 0.0 | 0.0 | 0.00 | 0.00 | 0.00 | 78 | 1013.2 |
| 20260505033038 | 15 | 167 | 0.0 | 0.0 | 0.00 | 0.00 | 0.00 | 78 | 1013.2 |
| 20260505031534 | 15 | 167 | 0.0 | 0.0 | 0.00 | 0.00 | 0.00 | 76 | 1013.2 |
| 20260505030033 | 16 | 217 | 0.0 | 0.0 | 0.00 | 0.00 | 0.00 | 74 | 1013.2 |
| 20260505024532 | 16 | 217 | 0.0 | 3.2 | 0.00 | 0.00 | 0.00 | 73 | 1013.3 |
| 20260505023028 | 16 | 172 | 0.0 | 0.0 | 0.00 | 0.00 | 0.00 | 70 | 1013.3 |
| 20260505021529 | 17 | 172 | 0.0 | 3.2 | 0.00 | 0.00 | 0.00 | 67 | 1013.3 |
| 20260505020023 | 17 | 208 | 0.0 | 3.2 | 0.00 | 0.00 | 0.00 | 65 | 1013.1 |
| 20260505014521 | 18 | 172 | 1.6 | 3.2 | 0.00 | 0.00 | 0.00 | 62 | 1013.1 |
| 20260505013020 | 18 | 160 | 0.0 | 3.2 | 0.00 | 0.00 | 0.00 | 64 | 1013.0 |
| 20260505011523 | 18 | 214 | 1.6 | 3.2 | 0.00 | 0.00 | 0.00 | 63 | 1012.9 |
| 20260505010016 | 18 | 181 | 0.0 | 3.2 | 0.00 | 0.00 | 0.00 | 64 | 1012.6 |
| 20260505004520 | 18 | 188 | 1.6 | 4.8 | 0.00 | 0.00 | 0.00 | 65 | 1012.5 |
| 20260505003013 | 18 | 212 | 0.0 | 3.2 | 0.00 | 0.00 | 0.00 | 65 | 1012.4 |
| 20260505001511 | 18 | 166 | 0.0 | 1.6 | 0.00 | 0.00 | 0.00 | 65 | 1012.5 |
| 20260505000019 | 18 | 207 | 0.0 | 3.2 | 0.00 | 0.00 | 0.00 | 64 | 1012.6 |
| 20260504234508 | 19 | 203 | 0.0 | 3.2 | 0.00 | 0.00 | 0.00 | 62 | 1012.5 |
| 20260504233006 | 20 | 207 | 1.6 | 3.2 | 0.00 | 0.00 | 0.00 | 58 | 1012.3 |
| 20260504231503 | 21 | 171 | 3.2 | 8.0 | 0.00 | 0.00 | 0.00 | 55 | 1012.5 |
| 20260504230002 | 21 | 198 | 3.2 | 12.9 | 0.00 | 0.00 | 0.00 | 54 | 1012.5 |
| 20260504224559 | 20 | 202 | 4.8 | 14.5 | 0.00 | 0.00 | 0.00 | 52 | 1012.3 |
| 20260504223102 | 20 | 183 | 11.3 | 20.9 | 0.00 | 0.00 | 0.00 | 50 | 1012.5 |
| 20260504221555 | 21 | 177 | 8.0 | 20.9 | 0.00 | 0.00 | 0.00 | 48 | 1012.4 |
| 20260504220052 | 21 | 188 | 9.7 | 20.9 | 0.00 | 0.00 | 0.00 | 49 | 1012.4 |
| 20260504214601 | 21 | 214 | 9.7 | 16.1 | 0.00 | 0.00 | 0.00 | 48 | 1012.6 |
| 20260504213051 | 21 | 162 | 4.8 | 17.7 | 0.00 | 0.00 | 0.00 | 48 | 1012.6 |
| 20260504211549 | 21 | 192 | 8.0 | 22.5 | 0.00 | 0.00 | 0.00 | 47 | 1012.6 |
| 20260504210043 | 21 | 146 | 4.8 | 20.9 | 0.00 | 0.00 | 0.00 | 47 | 1012.5 |
| 20260504204541 | 22 | 198 | 8.0 | 17.7 | 0.00 | 0.00 | 0.00 | 44 | 1012.7 |
| 20260504203142 | 22 | 212 | 4.8 | 12.9 | 0.00 | 0.00 | 0.00 | 44 | 1012.4 |
| 20260504201539 | 23 | 196 | 4.8 | 16.1 | 0.00 | 0.00 | 0.00 | 37 | 1012.7 |
| 20260504200032 | 23 | 179 | 4.8 | 9.7 | 0.00 | 0.00 | 0.00 | 37 | 1012.9 |
| 20260504194531 | 23 | 220 | 6.4 | 11.3 | 0.00 | 0.00 | 0.00 | 37 | 1013.0 |
| 20260504193026 | 23 | 217 | 1.6 | 14.5 | 0.00 | 0.00 | 0.00 | 38 | 1013.3 |
| 20260504191525 | 23 | 166 | 3.2 | 16.1 | 0.00 | 0.00 | 0.00 | 39 | 1013.5 |
| 20260504190020 | 22 | 206 | 1.6 | 9.7 | 0.00 | 0.00 | 0.00 | 41 | 1013.7 |
| 20260504184519 | 22 | 160 | 4.8 | 11.3 | 0.00 | 0.00 | 0.00 | 42 | 1014.0 |
| 20260504183014 | 22 | 254 | 1.6 | 9.7 | 0.00 | 0.00 | 0.00 | 40 | 1014.1 |
| 20260504181515 | 22 | 181 | 3.2 | 9.7 | 0.00 | 0.00 | 0.00 | 41 | 1014.4 |
| 20260504180009 | 22 | 231 | 4.8 | 12.9 | 0.00 | 0.00 | 0.00 | 38 | 1014.4 |
| 20260504174505 | 22 | 205 | 3.2 | 19.3 | 0.00 | 0.00 | 0.00 | 37 | 1014.5 |
| 20260504173002 | 22 | 356 | 3.2 | 16.1 | 0.00 | 0.00 | 0.00 | 38 | 1014.8 |
| 20260504171610 | 21 | 212 | 4.8 | 11.3 | 0.00 | 0.00 | 0.00 | 39 | 1015.0 |